Fort Meade, MD

6:28 AM EDT on May 25, 2017 (GMT -0400)
Tipton

Weather History for KFME - March, 2013

Change the Weather History Date:

Tuesday, March 5, 2013

  Actual Average (KBWI) Record (KBWI)
Temperature  
Mean Temperature 36 °F -  
Max Temperature 48 °F 51 °F 83 °F (1976)
Min Temperature 23 °F 33 °F 10 °F (1873)
Degree Days  
Heating Degree Days 30    
Moisture  
Dew Point 19 °F    
Average Humidity 54    
Maximum Humidity 86    
Minimum Humidity 20    
Precipitation  
Precipitation 0.00 in - - ()
Sea Level Pressure  
Sea Level Pressure 30.02 in    
Wind  
Wind Speed 4 mph (NE)    
Max Wind Speed 10 mph    
Max Gust Speed -    
Visibility 10 miles    
Events      
Averages and records for this station are not official NWS values.
T = Trace of Precipitation, MM = Missing Value Source: NWS Daily Summary

Daily Weather History Graph

Daily Weather History Graph

Search for Another Location

Airport or City:

Trip Planner

Search our weather history database for the weather conditions in past years. The results will help you decide how hot, cold, wet, or windy it might be!

Date:

Astronomy

Mar. 05, 2013 Rise Set
Actual Time 6:33 AM EST 6:04 PM EST
Civil Twilight 6:06 AM EST 6:30 PM EST
Nautical Twilight 5:35 AM EST 7:01 PM EST
Astronomical Twilight 5:04 AM EST 7:32 PM EST
Moon 1:41 AM EST (3/5) 11:43 AM EST (3/5)
Length of Visible Light 12h 24m
Length of Day
11h 30m
Last Quarter, 41% of the Moon is Illuminated
Mar 5
Last Quarter
Mar 11
New
Mar 19
First Quarter
Mar 27
Full
Apr 3
Last Quarter

Hourly Weather History & Observations

Time (EST) Temp. Windchill Dew Point Humidity Pressure Visibility Wind Dir Wind Speed Gust Speed Precip Events Conditions
12:00 AM 30.2 °F 23.4 °F 17.6 °F 60% 30.04 in 10.0 mi WNW 6.9 mph - N/A   Clear
12:18 AM 30.2 °F 22.6 °F 17.6 °F 60% 30.04 in 10.0 mi WNW 8.1 mph - N/A   Clear
12:39 AM 32.0 °F 25.6 °F 19.4 °F 60% 30.05 in 10.0 mi West 6.9 mph - N/A   Clear
1:00 AM 32.0 °F 27.5 °F 19.4 °F 60% 30.06 in 10.0 mi WNW 4.6 mph - N/A   Clear
1:21 AM 30.2 °F 25.4 °F 19.4 °F 64% 30.06 in 10.0 mi NW 4.6 mph - N/A   Clear
1:39 AM 30.2 °F - 19.4 °F 64% 30.06 in 10.0 mi Calm Calm - N/A   Clear
2:00 AM 28.4 °F - 19.4 °F 69% 30.06 in 10.0 mi Calm Calm - N/A   Clear
2:21 AM 28.4 °F - 19.4 °F 69% 30.06 in 10.0 mi Calm Calm - N/A   Clear
2:39 AM 26.6 °F - 19.4 °F 74% 30.06 in 10.0 mi Calm Calm - N/A   Clear
3:21 AM 26.6 °F - 19.4 °F 74% 30.06 in 10.0 mi Calm Calm - N/A   Clear
3:39 AM 26.6 °F 22.6 °F 19.4 °F 74% 30.06 in 10.0 mi NW 3.5 mph - N/A   Clear
4:00 AM 26.6 °F 22.6 °F 19.4 °F 74% 30.07 in 10.0 mi WNW 3.5 mph - N/A   Clear
4:21 AM 26.6 °F 22.6 °F 19.4 °F 74% 30.08 in 10.0 mi West 3.5 mph - N/A   Clear
4:39 AM 26.6 °F 22.6 °F 19.4 °F 74% 30.08 in 10.0 mi West 3.5 mph - N/A   Clear
5:00 AM 26.6 °F - 19.4 °F 74% 30.09 in 10.0 mi Calm Calm - N/A   Clear
5:21 AM 26.6 °F - 19.4 °F 74% 30.08 in 10.0 mi Calm Calm - N/A   Clear
5:39 AM 26.6 °F - 21.2 °F 80% 30.08 in 10.0 mi Calm Calm - N/A   Clear
6:00 AM 23.0 °F - 19.4 °F 86% 30.09 in 10.0 mi Calm Calm - N/A   Clear
6:21 AM 23.0 °F - 19.4 °F 86% 30.09 in 10.0 mi Calm Calm - N/A   Clear
6:39 AM 23.0 °F - 19.4 °F 86% 30.09 in 10.0 mi Calm Calm - N/A   Clear
7:00 AM 23.0 °F - 19.4 °F 86% 30.10 in 10.0 mi Calm Calm - N/A   Clear
7:21 AM 24.8 °F - 19.4 °F 80% 30.10 in 10.0 mi Calm Calm - N/A   Clear
7:39 AM 26.6 °F - 21.2 °F 80% 30.10 in 10.0 mi Calm Calm - N/A   Clear
8:00 AM 30.2 °F - 23.0 °F 75% 30.10 in 10.0 mi Calm Calm - N/A   Clear
8:21 AM 32.0 °F 28.7 °F 21.2 °F 64% 30.11 in 10.0 mi WSW 3.5 mph - N/A   Clear
8:39 AM 33.8 °F 29.6 °F 19.4 °F 56% 30.10 in 10.0 mi NW 4.6 mph - N/A   Clear
9:00 AM 35.6 °F 31.7 °F 19.4 °F 52% 30.11 in 10.0 mi West 4.6 mph - N/A   Clear
9:39 AM 37.4 °F 34.9 °F 17.6 °F 45% 30.10 in 10.0 mi NW 3.5 mph - N/A   Clear
10:00 AM 39.2 °F 35.0 °F 17.6 °F 42% 30.09 in 10.0 mi WNW 5.8 mph - N/A   Clear
10:21 AM 41.0 °F 37.1 °F 17.6 °F 39% 30.08 in 10.0 mi NNW 5.8 mph - N/A   Clear
11:00 AM 42.8 °F 39.3 °F 14.0 °F 31% 30.07 in 10.0 mi West 5.8 mph - N/A   Clear
11:21 AM 41.0 °F - 14.0 °F 33% 30.05 in 10.0 mi Calm Calm - N/A   Clear
11:42 AM 42.8 °F 40.1 °F 14.0 °F 31% 30.06 in 10.0 mi WNW 4.6 mph - N/A   Clear
12:00 PM 44.6 °F 40.2 °F 14.0 °F 29% 30.06 in 10.0 mi NNW 8.1 mph - N/A   Clear
12:21 PM 44.6 °F 42.2 °F 12.2 °F 27% 30.05 in 10.0 mi North 4.6 mph - N/A   Clear
12:42 PM 46.4 °F 44.3 °F 12.2 °F 25% 30.04 in 10.0 mi NNW 4.6 mph - N/A   Clear
1:00 PM 46.4 °F 45.2 °F 10.4 °F 23% 30.03 in 10.0 mi WNW 3.5 mph - N/A   Clear
1:21 PM 46.4 °F 41.9 °F 10.4 °F 23% 30.01 in 10.0 mi NNE 9.2 mph - N/A   Clear
1:42 PM 46.4 °F 44.3 °F 10.4 °F 23% 30.00 in 10.0 mi NNW 4.6 mph - N/A   Clear
2:00 PM 46.4 °F 43.5 °F 10.4 °F 23% 29.99 in 10.0 mi NNW 5.8 mph - N/A   Clear
2:21 PM 46.4 °F - 10.4 °F 23% 29.98 in 10.0 mi Calm Calm - N/A   Clear
3:00 PM 48.2 °F - 8.6 °F 20% 29.97 in 10.0 mi Calm Calm - N/A   Clear
3:21 PM 48.2 °F - 8.6 °F 20% 29.96 in 10.0 mi NNE 4.6 mph - N/A   Clear
4:00 PM 46.4 °F 41.5 °F 19.4 °F 34% 29.96 in 10.0 mi ESE 10.4 mph - N/A   Clear
4:21 PM 44.6 °F 39.7 °F 17.6 °F 34% 29.97 in 10.0 mi ESE 9.2 mph - N/A   Clear
4:42 PM 42.8 °F 37.5 °F 19.4 °F 39% 29.97 in 10.0 mi East 9.2 mph - N/A   Scattered Clouds
5:00 PM 42.8 °F 38.0 °F 17.6 °F 36% 29.98 in 10.0 mi East 8.1 mph - N/A   Mostly Cloudy
5:21 PM 42.8 °F 38.6 °F 17.6 °F 36% 29.98 in 10.0 mi ESE 6.9 mph - N/A   Overcast
5:42 PM 41.0 °F 35.2 °F 21.2 °F 45% 29.98 in 10.0 mi East 9.2 mph - N/A   Overcast
6:00 PM 41.0 °F 36.4 °F 21.2 °F 45% 29.98 in 10.0 mi ESE 6.9 mph - N/A   Overcast
6:21 PM 41.0 °F 38.0 °F 23.0 °F 49% 29.98 in 10.0 mi ESE 4.6 mph - N/A   Overcast
6:42 PM 41.0 °F 38.0 °F 23.0 °F 49% 29.98 in 10.0 mi ESE 4.6 mph - N/A   Overcast
7:03 PM 41.0 °F 39.0 °F 23.0 °F 49% 29.97 in 10.0 mi SE 3.5 mph - N/A   Overcast
7:21 PM 41.0 °F 38.0 °F 23.0 °F 49% 29.96 in 10.0 mi SE 4.6 mph - N/A   Overcast
7:42 PM 41.0 °F 39.0 °F 23.0 °F 49% 29.95 in 10.0 mi East 3.5 mph - N/A   Overcast
8:03 PM 39.2 °F 35.9 °F 24.8 °F 56% 29.95 in 10.0 mi East 4.6 mph - N/A   Overcast
8:21 PM 39.2 °F 37.0 °F 23.0 °F 52% 29.95 in 10.0 mi ESE 3.5 mph - N/A   Overcast
8:42 PM 39.2 °F 35.9 °F 24.8 °F 56% 29.95 in 10.0 mi ENE 4.6 mph - N/A   Overcast
9:03 PM 39.2 °F 35.0 °F 24.8 °F 56% 29.94 in 10.0 mi East 5.8 mph - N/A   Overcast
9:21 PM 39.2 °F 34.2 °F 23.0 °F 52% 29.93 in 10.0 mi East 6.9 mph - N/A   Overcast
9:42 PM 39.2 °F 32.5 °F 23.0 °F 52% 29.91 in 10.0 mi ESE 10.4 mph - N/A   Overcast
10:03 PM 39.2 °F 33.0 °F 26.6 °F 61% 29.90 in 10.0 mi East 9.2 mph - N/A   Overcast
10:21 PM 37.4 °F 30.3 °F 28.4 °F 70% 29.90 in 10.0 mi ESE 10.4 mph - N/A   Overcast
10:42 PM 37.4 °F 30.3 °F 28.4 °F 70% 29.90 in 10.0 mi East 10.4 mph - N/A   Overcast
11:03 PM 37.4 °F 32.1 °F 28.4 °F 70% 29.89 in 10.0 mi ESE 6.9 mph - N/A   Overcast
11:21 PM 37.4 °F 31.4 °F 28.4 °F 70% 29.88 in 10.0 mi East 8.1 mph - N/A   Overcast
11:42 PM 37.4 °F 32.1 °F 28.4 °F 70% 29.86 in 10.0 mi East 6.9 mph - N/A   Overcast